Location: Bacharowice
(49.9333°N, 19.5833°E)
Time: 03:48:42
(UTC+00:00)

Cosmos 1934 Rocket - Pass Details

Date: 11 May 2021
Orbit: 937 x 1000 km, 83.0° (Epoch: 22 June)

Event Time Altitude Azimuth Distance (km) Brightness Sun altitude
Rises 23:31:35 0° 346° (NNW) 3,661 8.1 -20.9°
Reaches altitude 10° 23:34:10 10° 342° (NNW) 2,701 7.1 -20.8°
Maximum altitude 23:40:04 50° 269° (W) 1,194 4.3 -20.6°
Enters shadow 23:42:12 35° 218° (SW) 1,477 4.5 -20.5°
